W2DRT Weather Reports


time (UTC)temp
C
wind
direction
speed
KPH
gust
KPH
rain 1hr
cm
rain 24hr
cm
rain mn
cm
humidity
%
barometer
mb
20260505180210 28 0.0 0.0 0.00 0.00 0.00 35 1010.6
20260505175209 27 0.0 0.0 0.00 0.00 0.00 37 1010.6
20260505174208 27 0.0 0.0 0.00 0.00 0.00 36 1010.6
20260505173207 28 0.0 0.0 0.00 0.00 0.00 37 1010.6
20260505172207 27 0.0 0.0 0.00 0.00 0.00 39 1010.6
20260505171204 27 0.0 0.0 0.00 0.00 0.00 39 1010.9
20260505170203 27 0.0 0.0 0.00 0.00 0.00 41 1010.9
20260505165159 26 0.0 0.0 0.00 0.00 0.00 41 1011.2
20260505164158 26 0.0 0.0 0.00 0.00 0.00 41 1011.2
20260505163154 26 0.0 0.0 0.00 0.00 0.00 42 1011.2
20260505162155 26 0.0 0.0 0.00 0.00 0.00 42 1011.2
20260505161155 26 0.0 0.0 0.00 0.00 0.00 44 1011.2
20260505160150 25 0.0 0.0 0.00 0.00 0.00 44 1011.6
20260505153146 24 0.0 0.0 0.00 0.00 0.00 47 1012.3
20260505152144 24 0.0 0.0 0.00 0.00 0.00 48 1012.3
20260505151143 23 0.0 0.0 0.00 0.00 0.00 48 1011.9
20260505150142 23 0.0 0.0 0.00 0.00 0.00 49 1012.3
20260505140142 21 0.0 0.0 0.00 0.00 0.00 54 1012.6
20260505130135 18 0.0 0.0 0.00 0.00 0.00 61 1012.6
20260505124133 17 0.0 0.0 0.00 0.00 0.00 63 1012.6
20260505123132 17 0.0 0.0 0.00 0.00 0.00 66 1012.6
20260505122132 17 0.0 0.0 0.00 0.00 0.00 68 1012.6
20260505121131 16 0.0 0.0 0.00 0.00 0.00 70 1012.3
20260505120129 15 0.0 0.0 0.00 0.00 0.00 73 1012.6
20260505115127 15 0.0 0.0 0.00 0.00 0.00 73 1012.3
20260505114126 14 0.0 0.0 0.00 0.00 0.00 74 1012.3
20260505113125 13 0.0 0.0 0.00 0.00 0.00 74 1012.3
20260505112120 13 0.0 0.0 0.00 0.00 0.00 75 1012.3
20260505111115 13 0.0 0.0 0.00 0.00 0.00 75 1012.3
20260505110115 13 0.0 0.0 0.00 0.00 0.00 75 1012.3
20260505102108 12 0.0 0.0 0.00 0.00 0.00 74 1011.9
20260505101108 12 0.0 0.0 0.00 0.00 0.00 74 1011.6
20260505100107 12 0.0 0.0 0.00 0.00 0.00 74 1011.2
20260505095105 12 0.0 0.0 0.00 0.00 0.00 74 1011.6
20260505094104 12 0.0 0.0 0.00 0.00 0.00 73 1011.6
20260505093104 12 0.0 0.0 0.00 0.00 0.00 73 1011.9
20260505092100 12 0.0 0.0 0.00 0.00 0.00 72 1011.6
20260505091054 13 0.0 0.0 0.00 0.00 0.00 72 1011.2
20260505090049 13 0.0 0.0 0.00 0.00 0.00 71 1011.2
20260505085045 13 0.0 0.0 0.00 0.00 0.00 71 1011.2
20260505084041 13 0.0 0.0 0.00 0.00 0.00 70 1011.2
20260505083040 13 0.0 0.0 0.00 0.00 0.00 70 1011.2
20260505082039 13 0.0 0.0 0.00 0.00 0.00 70 1011.6
20260505081038 13 0.0 0.0 0.00 0.00 0.00 71 1011.2
20260505080037 13 0.0 0.0 0.00 0.00 0.00 71 1011.6
20260505075036 13 0.0 0.0 0.00 0.00 0.00 71 1011.2
20260505074036 13 0.0 0.0 0.00 0.00 0.00 70 1011.2
20260505073032 13 0.0 0.0 0.00 0.00 0.00 70 1011.2
20260505072029 13 0.0 0.0 0.00 0.00 0.00 70 1011.2
20260505071029 13 0.0 0.0 0.00 0.00 0.00 69 1011.2
20260505070027 13 0.0 0.0 0.00 0.00 0.00 69 1011.2
20260505065025 13 0.0 0.0 0.00 0.00 0.00 68 1011.2
20260505064021 13 0.0 0.0 0.00 0.00 0.00 67 1011.2
20260505063019 13 0.0 0.0 0.00 0.00 0.00 67 1011.2
20260505062020 13 0.0 0.0 0.00 0.00 0.00 66 1011.6
20260505061015 13 0.0 0.0 0.00 0.00 0.00 65 1011.2
20260505060014 13 0.0 0.0 0.00 0.00 0.00 64 1011.2
20260505055012 13 0.0 0.0 0.00 0.00 0.00 63 1011.2
20260505054008 13 0.0 0.0 0.00 0.00 0.00 63 1011.6
20260505053007 14 0.0 0.0 0.00 0.00 0.00 62 1011.6
20260505052007 14 0.0 0.0 0.00 0.00 0.00 62 1011.2
20260505051002 14 0.0 0.0 0.00 0.00 0.00 61 1011.6
20260505041000 15 0.0 0.0 0.00 0.00 0.00 58 1011.6
20260505040000 15 0.0 0.0 0.00 0.00 0.00 58 1011.2
20260505034959 15 0.0 0.0 0.00 0.00 0.00 57 1011.6
20260505033958 15 0.0 0.0 0.00 0.00 0.00 57 1011.6
20260505032953 15 0.0 0.0 0.00 0.00 0.00 56 1011.6
20260505031952 15 0.0 0.0 0.00 0.00 0.00 56 1011.6
20260505030952 15 0.0 0.0 0.00 0.00 0.00 55 1011.6
20260505025949 15 0.0 0.0 0.00 0.00 0.00 54 1011.2
20260505024945 15 0.0 0.0 0.00 0.00 0.00 53 1011.9
20260505023945 15 0.0 0.0 0.00 0.00 0.00 52 1011.6
20260505022946 15 0.0 0.0 0.00 0.00 0.00 51 1011.6
20260505021940 15 0.0 0.0 0.00 0.00 0.00 50 1011.9
20260505020938 16 0.0 0.0 0.00 0.00 0.00 48 1011.9
20260505015936 16 0.0 0.0 0.00 0.00 0.00 46 1011.9
20260505014931 16 0.0 0.0 0.00 0.00 0.00 45 1011.6
20260505013930 16 0.0 0.0 0.00 0.00 0.00 43 1011.9
20260505012925 16 0.0 0.0 0.00 0.00 0.00 41 1011.6
20260505011925 17 0.0 0.0 0.00 0.00 0.00 39 1011.6
20260505010924 17 0.0 0.0 0.00 0.00 0.00 37 1011.2
20260505005922 17 0.0 0.0 0.00 0.00 0.00 35 1011.2
20260505004922 18 0.0 0.0 0.00 0.00 0.00 34 1011.2
20260505003921 18 0.0 0.0 0.00 0.00 0.00 33 1011.2
20260505002920 18 0.0 0.0 0.00 0.00 0.00 33 1010.9
20260505001915 18 0.0 0.0 0.00 0.00 0.00 32 1011.2
20260505000910 19 0.0 0.0 0.00 0.00 0.00 31 1011.2
20260504235910 20 0.0 0.0 0.00 0.00 0.00 29 1010.9
20260504234909 20 0.0 0.0 0.00 0.00 0.00 28 1010.6
20260504233909 20 0.0 0.0 0.00 0.00 0.00 28 1010.6
20260504232908 21 0.0 0.0 0.00 0.00 0.00 27 1010.6
20260504231907 21 0.0 0.0 0.00 0.00 0.00 26 1010.2
20260504230906 21 0.0 0.0 0.00 0.00 0.00 25 1010.6
20260504225902 22 0.0 0.0 0.00 0.00 0.00 23 1010.6
20260504224902 22 0.0 0.0 0.00 0.00 0.00 22 1010.6
20260504223901 22 0.0 0.0 0.00 0.00 0.00 22 1010.6
20260504222858 23 0.0 0.0 0.00 0.00 0.00 21 1010.6
20260504221854 23 0.0 0.0 0.00 0.00 0.00 20 1010.6
20260504220854 24 0.0 0.0 0.00 0.00 0.00 18 1010.6
20260504215853 26 0.0 0.0 0.00 0.00 0.00 13 1010.6
20260504214851 28 0.0 0.0 0.00 0.00 0.00 13 1010.6
20260504213850 30 0.0 0.0 0.00 0.00 0.00 13 1010.6
20260504212850 30 0.0 0.0 0.00 0.00 0.00 11 1010.6
20260504211849 30 0.0 0.0 0.00 0.00 0.00 11 1010.6
20260504210849 30 0.0 0.0 0.00 0.00 0.00 18 1010.9
20260504205848 29 0.0 0.0 0.00 0.00 0.00 19 1010.6
20260504204844 28 0.0 0.0 0.00 0.00 0.00 21 1010.6
20260504203842 26 0.0 0.0 0.00 0.00 0.00 24 1010.6
20260504202840 25 0.0 0.0 0.00 0.00 0.00 27 1010.9
20260504201839 23 0.0 0.0 0.00 0.00 0.00 27 1010.9
20260504200834 23 0.0 0.0 0.00 0.00 0.00 27 1010.6
20260504195833 23 0.0 0.0 0.00 0.00 0.00 26 1010.9
20260504194831 23 0.0 0.0 0.00 0.00 0.00 27 1010.9
20260504193829 23 0.0 0.0 0.00 0.00 0.00 28 1011.2
20260504192825 23 0.0 0.0 0.00 0.00 0.00 28 1011.2
20260504191821 23 0.0 0.0 0.00 0.00 0.00 27 1011.6
20260504190819 23 0.0 0.0 0.00 0.00 0.00 27 1011.2
20260504185818 23 0.0 0.0 0.00 0.00 0.00 28 1011.9
20260504184817 22 0.0 0.0 0.00 0.00 0.00 29 1011.9
20260504183815 22 0.0 0.0 0.00 0.00 0.00 29 1011.9
20260504182810 22 0.0 0.0 0.00 0.00 0.00 30 1012.3
20260504181810 22 0.0 0.0 0.00 0.00 0.00 32 1012.3